FW4261 Weather Reports


time (UTC)temp
C
wind
direction
speed
KPH
gust
KPH
rain 1hr
cm
rain 24hr
cm
rain mn
cm
humidity
%
barometer
mb
20260503180020 14 219 3.2 6.4 0.00 0.00 0.00 80 1014.0
20260503175521 14 224 3.2 4.8 0.00 0.00 0.00 81 1014.0
20260503175020 14 176 1.6 3.2 0.00 0.00 0.00 81 1014.0
20260503174540 14 244 3.2 4.8 0.00 0.00 0.00 80 1014.0
20260503173720 14 229 3.2 6.4 0.00 0.00 0.00 81 1014.1
20260503173217 14 264 1.6 4.8 0.00 0.00 0.00 81 1014.0
20260503172718 15 236 3.2 8.0 0.00 0.00 0.00 79 1014.0
20260503172217 15 220 1.6 4.8 0.00 0.00 0.00 79 1013.9
20260503171722 15 206 1.6 3.2 0.00 0.00 0.00 77 1013.8
20260503171220 15 209 1.6 4.8 0.00 0.00 0.00 77 1013.8
20260503170720 15 205 1.6 3.2 0.00 0.00 0.00 78 1013.8
20260503170221 15 210 0.0 1.6 0.00 0.00 0.00 77 1013.8
20260503150720 12 148 1.6 4.8 0.00 0.00 0.00 94 1013.3
20260503150220 12 163 1.6 3.2 0.00 0.00 0.00 94 1013.3
20260503140238 12 174 0.0 1.6 0.00 0.00 0.00 92 1012.4
20260503131218 12 130 0.0 1.6 0.00 0.00 0.00 93 1012.0
20260503130718 12 66 1.6 3.2 0.00 0.00 0.00 93 1011.9
20260503130239 12 102 0.0 1.6 0.00 0.00 0.00 93 1011.9
20260503120219 12 134 0.0 1.6 0.00 0.00 0.00 94 1011.5
20260503110718 12 132 0.0 1.6 0.00 0.00 0.00 93 1011.7
20260503110218 12 138 0.0 1.6 0.00 0.00 0.00 93 1011.7
20260503100119 12 136 0.0 1.6 0.00 0.00 0.00 92 1011.6
20260503090122 12 165 1.6 3.2 0.00 0.00 0.00 86 1011.9
20260503081618 13 0.0 0.0 0.00 0.00 0.00 84 1012.2
20260503081117 13 175 1.6 1.6 0.00 0.00 0.00 84 1012.2
20260503080618 13 0.0 0.0 0.00 0.00 0.00 84 1012.2
20260503080118 13 131 0.0 1.6 0.00 0.00 0.00 84 1012.2
20260503072618 13 196 0.0 1.6 0.00 0.00 0.00 84 1012.2
20260503072119 13 165 1.6 1.6 0.00 0.00 0.00 85 1012.2
20260503071619 13 177 1.6 1.6 0.00 0.00 0.00 84 1012.1
20260503071121 13 189 1.6 4.8 0.00 0.00 0.00 84 1012.0
20260503070620 13 183 1.6 3.2 0.00 0.00 0.00 85 1012.1
20260503070119 13 194 1.6 3.2 0.00 0.00 0.00 84 1012.2
20260503060125 13 192 1.6 3.2 0.00 0.00 0.00 85 1012.3
20260503055120 13 139 0.0 1.6 0.00 0.00 0.00 85 1012.3
20260503054620 13 130 0.0 1.6 0.00 0.00 0.00 85 1012.3
20260503054203 13 194 1.6 3.2 0.00 0.00 0.00 85 1012.3
20260503053617 13 192 1.6 3.2 0.00 0.00 0.00 85 1012.4
20260503053118 13 170 1.6 3.2 0.00 0.00 0.00 85 1012.4
20260503052618 13 189 1.6 3.2 0.00 0.00 0.00 85 1012.4
20260503052118 13 194 0.0 1.6 0.00 0.00 0.00 86 1012.5
20260503051618 13 198 1.6 3.2 0.00 0.00 0.00 86 1012.4
20260503051118 13 198 1.6 4.8 0.00 0.00 0.00 86 1012.4
20260503050621 13 193 1.6 3.2 0.00 0.00 0.00 86 1012.5
20260503050119 13 178 1.6 3.2 0.00 0.00 0.00 86 1012.5
20260503045623 13 190 1.6 3.2 0.00 0.00 0.00 86 1012.4
20260503045119 13 171 0.0 0.0 0.00 0.00 0.00 86 1012.4
20260503044618 13 167 1.6 1.6 0.00 0.00 0.00 87 1012.4
20260503044118 13 121 1.6 1.6 0.00 0.00 0.00 87 1012.3
20260503043619 13 199 1.6 4.8 0.00 0.00 0.00 87 1012.3
20260503043123 13 188 1.6 3.2 0.00 0.00 0.00 87 1012.3
20260503042619 13 132 1.6 3.2 0.00 0.00 0.00 87 1012.2
20260503042139 12 189 0.0 3.2 0.00 0.00 0.00 88 1012.2
20260503041619 12 195 1.6 4.8 0.00 0.00 0.00 88 1012.1
20260503041119 12 169 1.6 1.6 0.00 0.00 0.00 88 1012.1
20260503040619 12 127 1.6 1.6 0.00 0.00 0.00 88 1012.0
20260503040120 12 146 1.6 3.2 0.00 0.00 0.00 88 1011.9
20260503035619 12 130 0.0 1.6 0.00 0.00 0.00 88 1011.8
20260503035120 12 189 1.6 3.2 0.00 0.00 0.00 88 1011.8
20260503034620 12 182 1.6 3.2 0.00 0.00 0.00 88 1011.7
20260503034119 13 139 0.0 1.6 0.00 0.00 0.00 88 1011.6
20260503033619 13 192 1.6 3.2 0.00 0.00 0.00 87 1011.5
20260503033120 13 145 1.6 3.2 0.00 0.00 0.00 87 1011.5
20260503032616 13 175 0.0 1.6 0.00 0.00 0.00 87 1011.5
20260503032117 13 137 3.2 4.8 0.00 0.00 0.00 86 1011.4
20260503031621 13 157 1.6 1.6 0.00 0.00 0.00 86 1011.4
20260503031141 13 154 1.6 3.2 0.00 0.00 0.00 85 1011.4
20260503030641 13 153 1.6 3.2 0.00 0.00 0.00 85 1011.4
20260503030120 13 122 1.6 3.2 0.00 0.00 0.00 84 1011.4
20260503025642 13 157 1.6 3.2 0.00 0.00 0.00 84 1011.3
20260503025118 14 138 1.6 3.2 0.00 0.00 0.00 83 1011.4
20260503024617 14 134 0.0 1.6 0.00 0.00 0.00 84 1011.3
20260503024117 14 148 0.0 1.6 0.00 0.00 0.00 83 1011.3
20260503023638 14 140 0.0 3.2 0.00 0.00 0.00 83 1011.3
20260503023118 14 134 0.0 1.6 0.00 0.00 0.00 83 1011.2
20260503022638 14 111 0.0 1.6 0.00 0.00 0.00 83 1011.2
20260503022118 14 118 0.0 1.6 0.00 0.00 0.00 82 1011.2
20260503021626 14 110 0.0 1.6 0.00 0.00 0.00 82 1011.2
20260503021119 15 120 0.0 1.6 0.00 0.00 0.00 82 1011.2
20260503020619 15 87 1.6 3.2 0.00 0.00 0.00 81 1011.2
20260503020118 15 96 1.6 1.6 0.00 0.00 0.00 81 1011.2
20260503015618 15 107 1.6 3.2 0.00 0.00 0.00 79 1011.3
20260503015119 15 74 1.6 4.8 0.00 0.00 0.00 79 1011.4
20260503014623 15 183 0.0 1.6 0.00 0.00 0.00 78 1011.4
20260503014117 15 128 0.0 1.6 0.00 0.00 0.00 78 1011.3
20260503013637 15 106 1.6 3.2 0.00 0.00 0.00 78 1011.4
20260503013117 15 230 0.0 3.2 0.00 0.00 0.00 78 1011.4
20260503012619 15 87 1.6 3.2 0.00 0.00 0.00 79 1011.5
20260503012120 16 236 1.6 4.8 0.00 0.00 0.00 77 1011.5
20260503011639 16 85 1.6 6.4 0.00 0.00 0.00 77 1011.5
20260503011144 16 108 0.0 3.2 0.00 0.00 0.00 78 1011.5
20260503010619 16 167 0.0 0.0 0.00 0.00 0.00 78 1011.5
20260503010119 16 221 1.6 3.2 0.00 0.00 0.00 78 1011.6
20260503005618 15 236 1.6 3.2 0.00 0.00 0.00 79 1011.6
20260503005119 15 249 3.2 4.8 0.00 0.00 0.00 78 1011.6
20260503004618 16 337 1.6 1.6 0.00 0.00 0.00 77 1011.6
20260503004117 16 323 0.0 3.2 0.00 0.00 0.00 76 1011.6
20260503003637 16 149 1.6 3.2 0.00 0.00 0.00 77 1011.6
20260503003137 16 265 1.6 4.8 0.00 0.00 0.00 77 1011.7
20260503002620 16 248 1.6 4.8 0.00 0.00 0.00 76 1011.6
20260503002121 16 231 1.6 4.8 0.00 0.00 0.00 75 1011.7
20260503001618 16 142 3.2 6.4 0.00 0.00 0.00 76 1011.7
20260503001118 16 202 3.2 6.4 0.00 0.00 0.00 74 1011.8
20260503000618 16 255 1.6 4.8 0.00 0.00 0.00 76 1011.8
20260503000117 16 239 3.2 4.8 0.00 0.00 0.00 76 1011.8
20260502235618 16 199 3.2 6.4 0.00 0.00 0.00 76 1011.8
20260502235118 16 222 4.8 11.3 0.00 0.00 0.00 76 1011.9
20260502234619 16 192 1.6 4.8 0.00 0.00 0.00 76 1011.9
20260502234118 16 145 3.2 6.4 0.00 0.00 0.00 76 1012.0
20260502233618 16 278 1.6 3.2 0.00 0.00 0.00 74 1012.1
20260502233120 15 189 1.6 3.2 0.00 0.00 0.00 75 1012.1
20260502232620 15 358 1.6 3.2 0.00 0.00 0.00 78 1012.1
20260502232118 15 122 3.2 6.4 0.00 0.00 0.00 78 1012.2
20260502231618 15 208 3.2 6.4 0.00 0.00 0.00 75 1012.2
20260502231118 16 239 3.2 11.3 0.00 0.00 0.00 77 1012.2
20260502230620 16 189 3.2 6.4 0.00 0.00 0.00 77 1012.3
20260502230118 16 50 1.6 8.0 0.00 0.00 0.00 77 1012.5
20260502225619 16 196 3.2 4.8 0.00 0.00 0.00 76 1012.6
20260502225120 16 227 1.6 4.8 0.00 0.00 0.00 77 1012.7
20260502224619 16 213 1.6 4.8 0.00 0.00 0.00 78 1012.7
20260502224119 15 239 3.2 6.4 0.00 0.00 0.00 78 1012.9
20260502223619 15 210 3.2 6.4 0.00 0.00 0.00 79 1012.9
20260502223116 15 199 3.2 6.4 0.00 0.00 0.00 80 1013.0
20260502222619 16 303 3.2 6.4 0.00 0.00 0.00 79 1013.1
20260502222119 15 45 1.6 6.4 0.00 0.00 0.00 79 1013.2
20260502221619 15 206 3.2 6.4 0.00 0.00 0.00 81 1013.3
20260502221120 15 225 3.2 8.0 0.00 0.00 0.00 80 1013.5
20260502220639 15 195 0.0 1.6 0.00 0.00 0.00 80 1013.6
20260502220120 15 240 3.2 6.4 0.00 0.00 0.00 82 1013.6
20260502215640 15 201 1.6 4.8 0.00 0.00 0.00 83 1013.8
20260502215121 15 251 1.6 3.2 0.00 0.00 0.00 84 1013.8
20260502214617 15 46 3.2 6.4 0.00 0.00 0.00 83 1013.8
20260502214137 15 250 4.8 9.7 0.00 0.00 0.00 83 1013.9
20260502213617 15 258 3.2 4.8 0.00 0.00 0.00 82 1014.0
20260502213117 15 246 3.2 6.4 0.00 0.00 0.00 83 1014.0
20260502212620 15 254 1.6 6.4 0.00 0.00 0.00 83 1014.0
20260502212121 15 202 3.2 4.8 0.00 0.00 0.00 83 1013.9
20260502211621 15 255 1.6 3.2 0.00 0.00 0.00 85 1013.9
20260502211121 15 246 3.2 6.4 0.00 0.00 0.00 85 1013.9
20260502210641 15 221 1.6 3.2 0.00 0.00 0.00 84 1013.9
20260502210120 15 218 1.6 6.4 0.00 0.00 0.00 85 1013.9
20260502205618 15 147 1.6 4.8 0.00 0.00 0.00 86 1014.0
20260502205123 15 194 1.6 4.8 0.00 0.00 0.00 82 1014.0
20260502204618 15 216 3.2 6.4 0.00 0.00 0.00 85 1014.1
20260502204118 15 268 1.6 3.2 0.00 0.00 0.00 86 1014.2
20260502203620 14 225 3.2 9.7 0.00 0.00 0.00 86 1014.4
20260502203118 14 219 3.2 6.4 0.00 0.00 0.00 87 1014.5
20260502202622 13 246 1.6 3.2 0.00 0.00 0.00 88 1014.5
20260502202118 13 244 1.6 4.8 0.00 0.00 0.00 87 1014.6
20260502201618 13 176 3.2 8.0 0.00 0.00 0.00 88 1014.7
20260502201118 13 259 3.2 6.4 0.00 0.00 0.00 89 1014.6
20260502200619 13 230 3.2 6.4 0.00 0.00 0.00 88 1014.8
20260502200118 13 207 1.6 4.8 0.00 0.00 0.00 89 1014.9
20260502195619 13 204 1.6 3.2 0.00 0.00 0.00 88 1014.9
20260502195119 13 235 3.2 4.8 0.00 0.00 0.00 88 1015.0
20260502194641 13 261 1.6 3.2 0.00 0.00 0.00 87 1015.0
20260502194120 -17 219 3.2 4.8 0.00 0.00 0.00